• Em Portugal
  • Lista de países
  • Para 7 dias
  • Temperatura da água
  • Mapas de satélite
  • Mapa do tempo
  • Widgets de tempo
  • user-avatar
    Iniciar Sessão

    Previsão horária em Speshnevo

    Hoje, 19 Julho, Quinta-feira

    Tempo Temperatura Precipitação Vento Pressão Humidade
    00:00 +18°C° 0 mm 3 m/s 726 mmHg 98%
    01:00 +18°C° 0 mm 3 m/s 726 mmHg 98%
    02:00 +18°C° 0 mm 2 m/s 726 mmHg 99%
    03:00 +18°C° 0,1 mm 2 m/s 726 mmHg 98%
    04:00 +18°C° 0,1 mm 2 m/s 726 mmHg 98%
    05:00 +19°C° 0,1 mm 3 m/s 726 mmHg 97%
    06:00 +19°C° 0,3 mm 3 m/s 726 mmHg 96%
    07:00 +20°C° 0,3 mm 3 m/s 726 mmHg 94%
    08:00 +20°C° 0,3 mm 3 m/s 726 mmHg 92%
    09:00 +21°C° 0,5 mm 3 m/s 726 mmHg 91%
    10:00 +21°C° 0,5 mm 3 m/s 726 mmHg 89%
    11:00 +22°C° 0,5 mm 4 m/s 726 mmHg 87%
    12:00 +22°C° 0,4 mm 4 m/s 726 mmHg 85%
    13:00 +23°C° 0,4 mm 4 m/s 726 mmHg 84%
    14:00 +23°C° 0,4 mm 4 m/s 726 mmHg 82%
    15:00 +24°C° 0 mm 3 m/s 726 mmHg 82%
    16:00 +24°C° 0 mm 3 m/s 726 mmHg 83%
    17:00 +24°C° 0 mm 2 m/s 726 mmHg 83%
    18:00 +23°C° 0 mm 2 m/s 726 mmHg 87%
    19:00 +21°C° 0 mm 2 m/s 726 mmHg 91%
    20:00 +20°C° 0 mm 2 m/s 726 mmHg 94%
    21:00 +20°C° 0 mm 1 m/s 726 mmHg 95%
    22:00 +20°C° 0 mm 1 m/s 726 mmHg 96%
    23:00 +19°C° 0 mm 1 m/s 726 mmHg 96%

    Amanhã, 20 Julho, Sexta-feira

    Tempo Temperatura Precipitação Vento Pressão Humidade
    00:00 +19°C° 0 mm 1 m/s 726 mmHg 96%
    01:00 +19°C° 0 mm 1 m/s 727 mmHg 97%
    02:00 +19°C° 0 mm 1 m/s 727 mmHg 97%
    03:00 +19°C° 0 mm 1 m/s 727 mmHg 97%
    04:00 +19°C° 0 mm 1 m/s 727 mmHg 96%
    05:00 +20°C° 0 mm 1 m/s 727 mmHg 96%
    06:00 +21°C° 0 mm 1 m/s 727 mmHg 92%
    07:00 +22°C° 0 mm 1 m/s 728 mmHg 89%
    08:00 +23°C° 0 mm 2 m/s 728 mmHg 85%
    09:00 +24°C° 0,2 mm 2 m/s 728 mmHg 82%
    10:00 +25°C° 0,2 mm 1 m/s 728 mmHg 80%
    11:00 +25°C° 0,2 mm 1 m/s 728 mmHg 77%
    12:00 +26°C° 0,7 mm 1 m/s 728 mmHg 75%
    13:00 +26°C° 0,7 mm 1 m/s 728 mmHg 74%
    14:00 +27°C° 0,7 mm 1 m/s 728 mmHg 72%
    15:00 +27°C° 0,2 mm 1 m/s 728 mmHg 73%
    16:00 +27°C° 0,2 mm 2 m/s 728 mmHg 74%
    17:00 +27°C° 0,2 mm 2 m/s 728 mmHg 75%
    18:00 +25°C° 0,1 mm 2 m/s 728 mmHg 79%
    19:00 +24°C° 0,1 mm 1 m/s 728 mmHg 82%
    20:00 +23°C° 0,1 mm 1 m/s 728 mmHg 86%
    21:00 +22°C° 0 mm 1 m/s 728 mmHg 88%
    22:00 +22°C° 0 mm 1 m/s 728 mmHg 89%
    23:00 +21°C° 0 mm 1 m/s 728 mmHg 91%

    Depois de amanhã, 21 Julho, Sábado

    Tempo Temperatura Precipitação Vento Pressão Humidade
    00:00 +21°C° 0 mm 1 m/s 729 mmHg 91%
    01:00 +21°C° 0 mm 1 m/s 729 mmHg 92%
    02:00 +20°C° 0 mm 1 m/s 729 mmHg 93%
    03:00 +21°C° 0,2 mm 1 m/s 729 mmHg 93%
    04:00 +21°C° 0,2 mm 1 m/s 729 mmHg 93%
    05:00 +21°C° 0,2 mm 1 m/s 729 mmHg 94%
    06:00 +22°C° 0,1 mm 1 m/s 729 mmHg 90%
    07:00 +24°C° 0,1 mm 2 m/s 730 mmHg 86%
    08:00 +25°C° 0,1 mm 2 m/s 730 mmHg 82%
    09:00 +26°C° 1 mm 2 m/s 730 mmHg 78%
    10:00 +27°C° 1 mm 2 m/s 730 mmHg 75%
    11:00 +27°C° 1 mm 2 m/s 730 mmHg 71%
    12:00 +28°C° 0,5 mm 2 m/s 730 mmHg 69%
    13:00 +28°C° 0,5 mm 2 m/s 730 mmHg 67%
    14:00 +29°C° 0,5 mm 2 m/s 730 mmHg 65%
    15:00 +29°C° 0,3 mm 2 m/s 729 mmHg 67%
    16:00 +28°C° 0,3 mm 1 m/s 729 mmHg 70%
    17:00 +28°C° 0,3 mm 1 m/s 729 mmHg 72%
    18:00 +27°C° 0,3 mm 1 m/s 729 mmHg 76%
    19:00 +25°C° 0,3 mm 2 m/s 729 mmHg 80%
    20:00 +23°C° 0,3 mm 2 m/s 729 mmHg 84%
    21:00 +23°C° 0,2 mm 2 m/s 729 mmHg 86%
    22:00 +21°C° 0,2 mm 2 m/s 729 mmHg 88%
    23:00 +22°C° 0,2 mm 1 m/s 729 mmHg 90%

    22 Julho, Domingo

    Tempo Temperatura Precipitação Vento Pressão Humidade
    00:00 +21°C° 0 mm 1 m/s 729 mmHg 90%
    01:00 +21°C° 0 mm 1 m/s 729 mmHg 91%
    02:00 +21°C° 0 mm 1 m/s 729 mmHg 92%
    03:00 +21°C° 0 mm 1 m/s 729 mmHg 92%
    04:00 +21°C° 0 mm 1 m/s 729 mmHg 92%
    05:00 +20°C° 0 mm 2 m/s 729 mmHg 92%
    06:00 +23°C° 0 mm 2 m/s 729 mmHg 89%
    07:00 +24°C° 0 mm 2 m/s 729 mmHg 85%
    08:00 +26°C° 0 mm 2 m/s 729 mmHg 81%
    09:00 +26°C° 0,4 mm 3 m/s 729 mmHg 77%
    10:00 +27°C° 0,4 mm 3 m/s 729 mmHg 73%
    11:00 +28°C° 0,4 mm 3 m/s 729 mmHg 70%
    12:00 +28°C° 1,6 mm 3 m/s 729 mmHg 70%
    13:00 +28°C° 1,6 mm 3 m/s 729 mmHg 71%
    14:00 +28°C° 1,6 mm 3 m/s 729 mmHg 71%
    15:00 +28°C° 0,8 mm 2 m/s 729 mmHg 73%
    16:00 +28°C° 0,8 mm 2 m/s 729 mmHg 75%
    17:00 +27°C° 0,8 mm 1 m/s 729 mmHg 77%
    18:00 +26°C° 0,1 mm 1 m/s 729 mmHg 81%
    19:00 +24°C° 0,1 mm 1 m/s 729 mmHg 85%
    20:00 +23°C° 0,1 mm 1 m/s 729 mmHg 89%
    21:00 +23°C° 0 mm 1 m/s 729 mmHg 90%
    22:00 +22°C° 0 mm 1 m/s 729 mmHg 92%
    23:00 +21°C° 0 mm 1 m/s 728 mmHg 93%

    23 Julho, Segunda-feira

    Tempo Temperatura Precipitação Vento Pressão Humidade
    00:00 +21°C° 0 mm 1 m/s 729 mmHg 94%
    01:00 +21°C° 0 mm 1 m/s 729 mmHg 94%
    02:00 +20°C° 0 mm 1 m/s 729 mmHg 95%
    03:00 +20°C° 0 mm 1 m/s 729 mmHg 95%
    04:00 +21°C° 0 mm 1 m/s 729 mmHg 95%
    05:00 +21°C° 0 mm 1 m/s 729 mmHg 95%
    06:00 +22°C° 0 mm 1 m/s 729 mmHg 91%
    07:00 +23°C° 0 mm 1 m/s 729 mmHg 86%
    08:00 +24°C° 0 mm 2 m/s 729 mmHg 82%
    09:00 +25°C° 0,1 mm 2 m/s 729 mmHg 79%
    10:00 +26°C° 0,1 mm 2 m/s 729 mmHg 76%
    11:00 +27°C° 0,1 mm 2 m/s 729 mmHg 72%
    12:00 +27°C° 0,6 mm 2 m/s 729 mmHg 71%
    13:00 +27°C° 0,6 mm 2 m/s 729 mmHg 70%
    14:00 +28°C° 0,6 mm 2 m/s 729 mmHg 69%
    15:00 +27°C° 1,4 mm 2 m/s 729 mmHg 72%
    16:00 +27°C° 1,4 mm 2 m/s 729 mmHg 76%
    17:00 +27°C° 1,4 mm 2 m/s 729 mmHg 79%
    18:00 +25°C° 0,3 mm 2 m/s 729 mmHg 82%
    19:00 +24°C° 0,3 mm 2 m/s 729 mmHg 85%
    20:00 +23°C° 0,3 mm 2 m/s 729 mmHg 89%
    21:00 +21°C° 0 mm 2 m/s 729 mmHg 90%
    22:00 +21°C° 0 mm 2 m/s 729 mmHg 92%
    23:00 +20°C° 0 mm 2 m/s 730 mmHg 94%

    24 Julho, Terça-feira

    Tempo Temperatura Precipitação Vento Pressão Humidade
    00:00 +20°C° 0 mm 2 m/s 730 mmHg 94%
    01:00 +19°C° 0 mm 2 m/s 730 mmHg 95%
    02:00 +19°C° 0 mm 2 m/s 730 mmHg 95%
    03:00 +19°C° 0 mm 2 m/s 730 mmHg 95%
    04:00 +19°C° 0 mm 2 m/s 730 mmHg 95%
    05:00 +19°C° 0 mm 2 m/s 730 mmHg 95%
    06:00 +21°C° 0 mm 2 m/s 731 mmHg 92%
    07:00 +22°C° 0 mm 3 m/s 731 mmHg 88%
    08:00 +24°C° 0 mm 3 m/s 731 mmHg 85%
    09:00 +25°C° 0,1 mm 3 m/s 731 mmHg 81%
    10:00 +26°C° 0,1 mm 3 m/s 731 mmHg 77%
    11:00 +27°C° 0,1 mm 3 m/s 731 mmHg 73%
    12:00 +27°C° 0,3 mm 3 m/s 731 mmHg 72%
    13:00 +28°C° 0,3 mm 4 m/s 732 mmHg 70%
    14:00 +28°C° 0,3 mm 4 m/s 732 mmHg 68%
    15:00 +28°C° 0,3 mm 4 m/s 732 mmHg 71%
    16:00 +28°C° 0,3 mm 3 m/s 732 mmHg 74%
    17:00 +27°C° 0,3 mm 3 m/s 732 mmHg 77%
    18:00 +26°C° 0,2 mm 3 m/s 732 mmHg 81%
    19:00 +24°C° 0,2 mm 3 m/s 732 mmHg 84%
    20:00 +22°C° 0,2 mm 3 m/s 732 mmHg 88%
    21:00 +21°C° 0 mm 3 m/s 732 mmHg 89%
    22:00 +21°C° 0 mm 3 m/s 733 mmHg 90%
    23:00 +20°C° 0 mm 2 m/s 733 mmHg 92%
    Mostrar mais